Location: Elstree
(51.6403°N, 0.2969°W)
Time: 05:47:44
(UTC+00:00)

Tiangong - Visible Passes

Search period start: 02 December 2022 00:00
Search period end: 12 December 2022 00:00
Orbit: 385 x 394 km, 41.5° (Epoch: 01 December)

Date Brightness Start Highest point End Pass type
(mag) Time Alt. Az. Time Alt. Az. Time Alt. Az.
02 Dec 0.7 18:21:12 10° SSW 18:21:50 11° S 18:21:50 11° S visible
04 Dec 0.4 18:01:56 10° SSW 18:03:36 13° S 18:04:06 13° SSE visible
05 Dec 0.6 17:04:47 10° SSW 17:06:10 12° S 17:07:33 10° SE visible
05 Dec 0.8 18:40:48 10° SW 18:41:31 12° SSW 18:41:31 12° SSW visible
06 Dec 0.6 17:43:16 10° SW 17:44:58 14° S 17:46:41 10° SSE visible
07 Dec 0.6 16:45:58 10° SSW 16:47:39 14° S 16:49:21 10° SE visible
07 Dec 0.8 18:22:58 10° SSW 18:23:49 11° SSW 18:24:22 10° S visible
08 Dec 0.7 17:25:09 10° SW 17:26:35 13° S 17:28:02 10° SSE visible
10 Dec 1.1 17:08:04 10° SSW 17:08:28 10° SSW 17:08:52 10° S visible
